Regional Weather Roundup
Issued by NWS

Home | Current Version | Previous Version | Text Only | Print | Product List | Glossary On
Versions: 1 2 3 4 5 6 7 8 9 10 11 12 13 14 15 16 17 18 19 20 21 22 23 24 25 26 27 28 29 30 31 32 33 34 35 36 37 38 39 40 41 42 43 44 45 46 47 48 49 50
000
ASUS42 KTBW 060916
RWRFL
FLORIDA REGIONAL WEATHER ROUNDUP
NATIONAL WEATHER SERVICE TAMPA BAY RUSKIN FL
400 AM EST SAT FEB 06 2016

NOTE: "FAIR" INDICATES FEW OR NO CLOUDS BELOW 12,000 FEET WITH NO
SIGNIFICANT WEATHER AND/OR OBSTRUCTIONS TO VISIBILITY.


FLZ001>010-012>015-112-114-115-061000-
PANHANDLE FLORIDA

CITY           SKY/WX    TMP DP  RH WIND       PRES   REMARKS
PENSACOLA      PTCLDY    43  22  43 NE8       30.33F WCI  38
PENSACOLA NAS  PTCLDY    36  29  75 N5        30.34S WCI  32
MILTON NAS     PTCLDY    31  27  85 CALM      30.33
CRESTVIEW      CLOUDY    30  26  85 CALM      30.35S
DUKE FIELD     FAIR      30  25  84 CALM      30.32S
VALPARAISO     PTCLDY    35  24  62 N7        30.32S WCI  30
MARY ESTHER    PTCLDY    37  22  54 N7        30.32F WCI  31
TRI COUNTY     FAIR      34  29  82 CALM      30.33F
PANAMA CITY    FAIR      34  30  85 CALM      30.31S
TYNDALL AFB    PTCLDY    39  31  72 NE3       30.32R
APALACHICOLA   PTCLDY    38  28  67 NE7       30.29S WCI  33

STATION/POSITION SKY/WX   TEMP    WIND        PRES    WAVE   SWELL
                          AIR SEA DIR/SP/G            HT/PER HT/PER
                          (F)     (DEG/KT/KT) (MB)    (FT/S) (FT/S)
30.1N   87.6W              51 62   40/ 14/ 16 1026.5F   2/ 4
28.8N   86.0W              56 70   40/ 14/ 19 1024.9F   4/ 6
PANAMA CITY BEAC           39 62   10/  6/  7 1027.0F
CAPE SAN BLAS    NOT AVBL
TOWER C          NOT AVBL
28.5N   84.5W              56 69   50/ 16/ 19 1023.6F   4/ 5

$$
FLZ011-016>038-118-127-128-134-139-239-061000-
NORTH FLORIDA

CITY           SKY/WX    TMP DP  RH WIND       PRES   REMARKS
MARIANNA       CLOUDY    32  31  96 NW3       30.32S
TALLAHASSEE    PTCLDY    36  30  79 N3        30.29F
PERRY          CLOUDY    42  34  73 N3        30.29F
LIVE OAK         N/A     43  39  87 N3        30.32R
CROSS CITY       N/A     47  37  68 NE12G17   30.26F WCI  42
LAKE CITY      CLOUDY    43  37  81 N7        30.28S WCI  39
GAINESVILLE    CLOUDY    45  36  70 N9        30.25S WCI  40
WILLISTON      FAIR      46  37  71 MISG      30.24F
KEYSTONE HEIGH FAIR      45  34  65 N8        30.24F WCI  40
PALATKA        CLOUDY    45  39  81 N6        30.24S WCI  41
MAYPORT NAS    CLEAR     53  41  63 N18G28    30.25R
JACKSONVILLE   PTCLDY    42  37  82 N10       30.27R WCI  36
JAX NAS        CLOUDY    48  38  68 NW13      30.27R WCI  43
JAX CRAIG      MOCLDY    51  40  65 NE8       30.25S
JAX CECIL      PTCLDY    43  37  81 N8        30.27R WCI  38
FERNANDINA BEA FAIR      52  37  58 N12G20    30.25S
ST AUGUSTINE   CLOUDY    54  45  71 N18G24    30.23S
PALM COAST     CLOUDY    51  48  87 W8        30.20R

STATION/POSITION SKY/WX   TEMP    WIND        PRES    WAVE   SWELL
                          AIR SEA DIR/SP/G            HT/PER HT/PER
                          (F)     (DEG/KT/KT) (MB)    (FT/S) (FT/S)
SHELL POINT                39      10/  5/  7 1025.2
KEATON BEACH               41      20/  4/  7 1025.2F
CEDAR KEY                  46      20/  8/ 11 1024.4R
FERNANDINA                 52 58   20/  8/ 19 1024.7F
30.7N   81.3W                 58                N/A     5/ 5
MAYPORT                    53 58   40/ 20/ 24 1023.8F
31.4N   80.9W              51 57   30/ 17/ 21 1025.7F   4/ 9   2/ 9
ST AUGUSTINE               55 58   10/ 25/ 27 1023.5S

$$
FLZ040-043>046-052-053-057-058-063-144-061000-
INTERIOR CENTRAL FLORIDA

CITY           SKY/WX    TMP DP  RH WIND       PRES   REMARKS
OCALA          CLEAR     46  34  61 N8        30.21F WCI  42
THE VILLAGES     N/A     46  41  81 NW7       30.11S WCI  43
LEESBURG       PTCLDY    46  39  76 N10       30.20F WCI  41
SANFORD        PTCLDY    50  45  83 N8        30.17F
ORLANDO EXEC   CLEAR     50  43  77 NW5       30.17F
ORLANDO INTL   PTCLDY    48  44  86 N7        30.17F WCI  45
WINTER HAVEN   PTCLDY    48  44  86 N9        30.17F WCI  44
LAKELAND       MOCLDY    46  41  81 N6        30.18S WCI  43
BARTOW         FAIR      48  43  81 N6        30.17S
OKEECHOBEE     CLOUDY    50  46  87 NW3       30.15R

$$
FLZ041-047-054-059-064-141-147-061000-
EAST CENTRAL FLORIDA

CITY           SKY/WX    TMP DP  RH WIND       PRES   REMARKS
DAYTONA BEACH  PTCLDY    49  46  90 W3        30.17F
DELAND           N/A     48  45  87 NW7       30.19F
JFK SPACE CTR  CLEAR     60  50  69 E7        30.15F
CAPE CANAVERAL PTCLDY    62  50  66 E8        30.13F
PATRICK AFB    PTCLDY    66  52  61 E14       30.13F
MELBOURNE      MOCLDY    52  51  97 W5        30.14F
VERO BEACH     MOCLDY    64  54  69 NE7       30.14R
FT PIERCE      MOCLDY    65  56  72 E8        30.12R
STUART           N/A     70  55  60 NE9       30.14R

STATION/POSITION SKY/WX   TEMP    WIND        PRES    WAVE   SWELL
                          AIR SEA DIR/SP/G            HT/PER HT/PER
                          (F)     (DEG/KT/KT) (MB)    (FT/S) (FT/S)
28.5N   80.2W              67 74   80/ 14/ 16 1021.2S
28.9N   78.5W              66 73              1021.4F
TRIDENT PIER               63 65   40/  6/  8 1020.9F
28.4N   80.5W                 65                N/A     3/ 8
27.5N   80.2W                 74                N/A     5/ 6

$$
FLZ050-056-061-142-242-148-248-149-249-151-251-155-255-
160-260-061000-
WEST CENTRAL FLORIDA

CITY           SKY/WX    TMP DP  RH WIND       PRES   REMARKS
CRYSTAL RIVER  FAIR      45  36  70 NE8       30.22S WCI  40
INVERNESS      FAIR      45  37  76 N7        30.22S WCI  41
BROOKSVILLE    MOCLDY    46  36  68 N8        30.20F WCI  42
ZEPHYRHILLS    FAIR      45  38  78 N8        30.19F WCI  40
CLEARWATER AIR PTSUNNY   46  36  66 NE5       30.18F WCI  44
ST PETE CLEARW MOCLDY    49  40  71 NE12      30.18F WCI  44
TAMPA INTL     MOCLDY    48  39  71 N8        30.18F WCI  44
TAMPA EXEC     MOCLDY    48  41  76 NE3       30.19F
PLANT CITY     MOCLDY    48  43  81 N7        30.19F
MACDILL AFB    MOCLDY    47  41  80 NE8       30.16F WCI  43
PETER O KNIGHT MOCLDY    50  43  76 NE10G17   30.18F
ST PETERSBURG  MOCLDY    52  44  74 NE17      30.16F
SARASOTA       MOCLDY    49  42  77 N8        30.15F
VENICE         CLOUDY    48  43  81 NE14      30.15S WCI  43

STATION/POSITION SKY/WX   TEMP    WIND        PRES    WAVE   SWELL
                          AIR SEA DIR/SP/G            HT/PER HT/PER
                          (F)     (DEG/KT/KT) (MB)    (FT/S) (FT/S)
CEDAR KEY                  46      20/  8/ 11 1024.4R
28.5N   84.5W              56 69   50/ 16/ 19 1023.6F   4/ 5
27.3N   84.2W                 71                N/A     5/ 6
CLEARWATER BEACH           49 60   10/ 16/ 19 1022.6F
MIDDLE TAMPA BAY           51      40/ 18/ 22 1021.7F
VENICE                     50 65   30/  9/ 12 1020.5F

$$
FLZ066-069-070-075>078-162-262-165-265-061000-
SOUTHWEST FLORIDA AND KEYS

CITY           SKY/WX    TMP DP  RH WIND       PRES   REMARKS
PUNTA GORDA    CLOUDY    50  46  86 NE10      30.15F
FT MYERS       MOCLDY    52  46  80 NE8       30.11F
SOUTHWEST INTL MOCLDY    53  46  77 NE9       30.11F
NAPLES         CLOUDY    55  49  80 NE8       30.10F
MARCO ISLAND   CLOUDY    55  45  67 NE8       30.11S
MARATHON       PTCLDY    64  60  87 NE12      30.06S
KEY WEST NAS   CLEAR     65  59  81 N12       30.07R
KEY WEST INTL  CLEAR     64  61  90 NE9       30.07S

STATION/POSITION SKY/WX   TEMP    WIND        PRES    WAVE   SWELL
                          AIR SEA DIR/SP/G            HT/PER HT/PER
                          (F)     (DEG/KT/KT) (MB)    (FT/S) (FT/S)
VENICE                     50 65   30/  9/ 12 1020.5F
NAPLES                        66              1019.8S
26.0N   85.6W              64 80   40/ 10/ 16 1021.9F   5/ 8   5/ 8
DRY TORTUGAS                                    N/A
SAND KEY                   65      60/  9/ 18 1018.3S
LONG KEY                   65 70   40/ 14/ 15 1018.7R
MOLASSES REEF              72 75   80/ 16/ 18 1017.7F

$$
FLZ067-068-071>074-168-172>174-061000-
SOUTHEAST FLORIDA

CITY           SKY/WX    TMP DP  RH WIND       PRES   REMARKS
W PALM BEACH   CLOUDY    70  57  63 E10       30.10S
FT LAUDER-EXEC PTCLDY    59  55  87 NW5       30.09S
FT LAUDERDALE  MOCLDY    61  56  83 NW7       30.08S
POMPANO BEACH  MOCLDY    70  60  70 E10       30.09S
PEMBROKE PINES MOCLDY    60  56  86 NW3       30.10S
OPA LOCKA      CLOUDY    62  57  83 N3        30.09S
MIAMI          MOCLDY    61  56  83 NW3       30.08F
WEST KENDALL   CLOUDY    60  57  89 N3        30.08F
HOMESTEAD      PTCLDY    60  56  87 N8        30.07F

STATION/POSITION SKY/WX   TEMP    WIND        PRES    WAVE   SWELL
                          AIR SEA DIR/SP/G            HT/PER HT/PER
                          (F)     (DEG/KT/KT) (MB)    (FT/S) (FT/S)
PORT EVERGLADES            72      70/ 12/ 16 1018.6R
VIRGINIA KEY               71 72   70/ 13/ 16 1018.4F
LAKE WORTH                 71 73   60/ 15/ 18 1018.7F
SETTLEMENT POINT           69      70/ 15/ 16 1019.5F

$$




USA.gov is the U.S. government's official web portal to all federal, state and local government web resources and services.